Regional Weather Roundup
Issued by NWS Wakefield, VA

Home | Current Version | Previous Version | Text Only | Print | Product List | Glossary On
Versions: 1 2 3 4 5 6 7 8 9 10 11 12 13 14 15 16 17 18 19 20 21 22 23 24 25 26 27 28 29 30 31 32 33 34 35 36 37 38 39 40 41 42 43 44 45 46 47 48 49 50
000
ASUS41 KAKQ 070715
RWRAKQ

REGIONAL WEATHER ROUNDUP
NATIONAL WEATHER SERVICE WAKEFIELD VA
300 AM EDT TUE JUL 07 2015

Note: "fair" indicates few or no clouds below 12,000 feet with no
significant weather and/or obstructions to visibility. * = Denotes
station may not report precipitation (e.g., rain,snow,etc.),
thunder or fog.

VAZ042-051-052>054-056-070800-
NORTHERN VIRGINIA

CITY           SKY/WX    TMP DP  RH WIND       PRES   REMARKS
WASH NATIONAL  MOCLDY    75  72  88 S6        30.03S
DULLES         PTCLDY    72  70  94 S6        30.03S
FORT BELVOIR   CLOUDY    73  71  95 CALM      30.03S
QUANTICO       NOT AVBL
FREDERICKSBRG* CLEAR     73  73 100 CALM      30.03S
STAFFORD*      MOCLDY    69  68  97 CALM      30.08S FOG
WARRENTON      MOCLDY    71  71 100 CALM      30.03S
CULPEPER*      CLOUDY    70  70 100 CALM      30.04F FOG
MANASSAS*      CLEAR     70  70 100 S3          N/A
LEESBURG*      PTCLDY    72  72 100 CALM      30.04S FOG
WINCHESTER     CLOUDY    72  70  94 SW3       30.04S
FRONT ROYAL*   FAIR      70  68  94 S5        30.04S
LURAY*         CLOUDY    72  72 100 CALM      30.06S
$$

VAZ048-049-060>072-079>083-070800-
CENTRAL AND SOUTH CENTRAL VIRGINIA

CITY           SKY/WX    TMP DP  RH WIND       PRES   REMARKS
RICHMOND       PTCLDY    74  71  91 S6        30.05S
CHESTERFIELD*  NOT AVBL
PETERSBURG*    CLEAR     71  71 100 CALM      30.07R FOG
HANOVER        CLEAR     72  72 100 CALM      30.06S FOG
TAPPAHANNOCK*  CLEAR     73  69  89 CALM      30.05S
QUINTON*       NOT AVBL
CHARLOTTSVILLE PTCLDY    70  68  93 S6        30.05S
GORDONSVILLE*  CLOUDY    72  70  94 SW5       30.05R FOG
ORANGE*        FOG       72  72 100 S6        30.06S VSB 3/4
LOUISA*        CLEAR     70  68  94 CALM      30.05R
BUMPASS*       FAIR      68  68  99 CALM      30.05S
FARMVILLE*     MOCLDY    70  70 100 CALM      30.06R
CREWE*         FAIR      71  69  93 CALM      30.06R
FORT PICKETT*  FAIR      69  68  96 SW6       30.07S
CHASE CITY*    FAIR      72  72 100 CALM      30.08S
CLARKSVILLE*   FAIR      68  68 100 CALM      30.08R
SOUTH HILL*    PTCLDY    71  69  94 SW3       30.13R
LAWRENCEVILLE* NOT AVBL
EMPORIA*         N/A     72  72 100 CALM      30.08S
$$

VAZ088>098-070800-
SOUTHEAST VIRGINIA

CITY           SKY/WX    TMP DP  RH WIND       PRES   REMARKS
NORFOLK        CLEAR     75  71  87 S7        30.06S
VIRGINIA BEACH CLEAR     78  72  81 S10       30.06S
NORFOLK NAVAL  PTCLDY    74  72  93 S6        30.08S
WEST POINT*    CLEAR     76  72  87 SE3       30.06S
SALUDA*        FAIR      74  70  87 S6        30.05S
NEWPORT NEWS   CLEAR     76  72  87 S7        30.06S
LANGLEY AFB    CLEAR     75  72  89 S12       30.05R
FORT EUSTIS    MOCLDY    77  77 100 S6        30.04S
WILLIAMSBURG*  CLEAR     79  73  83 S7        30.07S
HR EXEC AP*    FAIR      73  70  88 S5        30.09S
FRANKLIN*      CLEAR     73  72  98 S5        30.08R
WAKEFIELD      CLEAR     74  71  91 VRB3      30.07R
$$

VAZ020-022-025-037-045-070800-
WEST CENTRAL AND SOUTHWEST VIRGINIA

CITY           SKY/WX    TMP DP  RH WIND       PRES   REMARKS
STAUNTON*      MOCLDY    69  67  93 CALM      30.10S FOG
WAYNESBORO*    FAIR      68  65  92 CALM      30.10S
HOT SPRINGS VA PTCLDY    63  63 100 W12       30.19F FOG
LYNCHBURG      CLEAR     65  65 100 SW3       30.10S
DANVILLE       CLEAR     69  66  90 CALM      30.09R
SOUTH BOSTON*  FAIR      69  67  93 MISG      30.08S
MARTINSVILLE   CLEAR     66  66 100 CALM      30.13F FOG
ROANOKE        CLEAR     67  66  97 NW3       30.12S
BLACKSBURG     CLEAR     63  63 100 CALM      30.19F FOG
DUBLIN*        CLEAR     64  64 100 SW5       30.17F FOG
MARION*        PTCLDY    62  61  97 CALM      30.21F FOG
HILLSVILLE*    CLEAR     62  61  96 S5        30.18F
RICHLANDS*     FAIR      65  63  94 S3        30.19S
WISE*          CLEAR     64  64 100 S3        30.20S FOG
ABINGDON*      PTCLDY    65  65 100 CALM      30.17F FOG
$$

MDZ021>025-VAZ099-100-070800-
SOUTHERN MARYLAND AND THE DELMARVA PENINSULA

CITY           SKY/WX    TMP DP  RH WIND       PRES   REMARKS
PATUXENT RIVER CLEAR     74  71  91 MISG      30.03S
BAY BRIDGE APT   N/A     77  73  88 S6        30.02F
LEONARDTOWN    CLEAR     72  70  94 CALM      30.05F
DOVER          PTCLDY    74  74 100 S6        30.02S
GEORGETOWN     CLOUDY    76  74  93 SW3       30.05S
EASTON         CLEAR     74  74 100 SW5       30.06F
CAMBRIDGE      CLEAR     73  72  94 CALM      30.03S
SALISBURY      PTCLDY    74  74 100 S5        30.04S
OCEAN CITY     CLOUDY    77  74  90 S8        30.05S
WALLOPS ISLAND PTCLDY    77  77 100 SW10      30.05F
ACCOMACK*      PTCLDY    75  73  94 SW3       30.06R
$$

NCZ012>017-030>032-070800-
NORTH CENTRAL AND EASTERN NORTH CAROLINA

CITY           SKY/WX    TMP DP  RH WIND       PRES   REMARKS
ROANOKE RAPIDS FAIR      72  70  94 S3        30.07F
RALEIGH        PTCLDY    72  66  81 CALM      30.09R
ELIZABETH CITY CLEAR     77  73  87 S9        30.09R
AHOSKIE*       CLEAR     73  70  91 S3        30.08S
EDENTON*       CLEAR     76  72  88 SW7       30.09S
CURRITUCK*     CLEAR     76  73  88 CALM      30.09S
KILL DEVIL HLS CLEAR     78  73  85 SW7       30.09S
MANTEO         CLEAR     77  74  88 SW12      30.10S
CAPE HATTERAS  CLEAR     77  75  93 SW9       30.11R
TARBORO*         N/A     74  70  87 CALM      30.09S
GOLDSBORO      CLEAR     74  71  92 CALM      30.08R
WASHINGTON     CLEAR     74  72  92 S3        30.10S
GREENVILLE     CLEAR     73  72  94 S6        30.11S
NEW BERN       CLEAR     76  74  93 S5        30.11R
WILMINGTON     CLEAR     76  72  87 SW3       30.10S
$$

VAZ048-070800-
ELSEWHERE

CITY           SKY/WX    TMP DP  RH WIND       PRES   REMARKS
HARRISBURG PA  CLOUDY    73  70  90 CALM      30.01R
BALTIMORE      PTCLDY    71  70  96 CALM      30.02S
ANNAPOLIS      PTCLDY    76  70  82 S7        30.01F
ANDREWS AFB    MOCLDY    71  71 100 S6        30.03R
PHILADELPHIA   CLOUDY    77  72  84 S8        30.04R
HENDERSON NC   CLEAR     68  64  87 CALM      30.09R
GREENSBORO     PTCLDY    72  68  87 S3        30.10S
ROCKY MOUNT    CLEAR     73  70  90 CALM      30.09S
$$

VAZ100-070800-
MARINE

STATION/POSITION TIME  TEMP    WIND        PRES    WAVE   SWELL
                       AIR SEA DIR/SP/G            HT/PER HT/PER
                 (UTC) (F)     (DEG/KT/KT) (MB)    (FT/S) (FT/S)
BRANDYWINE LGT   0600   74 74  180/ 14/ 15 1017.3F
CAPE MAY NJ      0600   75 80  170/  9/ 13 1017.1F
LEWES DE         0600   78 74  190/  7/  9 1017.1F
15NM E FENWICK I 0650   76 75              1017.1F   3/ 4
OCEAN-CITY-INLET 0600   76 74  200/ 11/ 14 1017.4F
WACHAPREAGUE VA  0600   79 82  230/  7/ 10 1017.8F
GOOSES REEF MD   0700   78 78  210/ 12/ 14 1017.6F
COVE POINT MD    0600   76     220/ 12/ 13 1017.7F
SOLOMONS ISLAND  0600      81                N/A
BISHOPS HEAD MD  0600   79     200/ 11/ 12 1016.9F
PINEY POINT MD   0600          200/ 10/ 12   N/A
CAMBRIDGE MD     0600   75 80  170/  2/  4 1016.8F
LEWISETTA VA     0600   76 82  210/  9/ 11 1017.0S
RAPPAHANNOCK LGT 0600          200/ 14/ 16 1018.0F
STINGRAY PT      0700   79 80  210/ 12/ 12 1017.6R   1/ 2
YORK RVR RNG VA  0600   78     200/ 11/ 13 1017.0F
YORKTOWN VA      0600   77 80  190/  9/ 11 1017.3F
JAMESTOWN VA     0700   76 83  190/ 10/ 12   N/A
DOMINION TERM VA 0600   77     180/ 11/ 13 1017.6F
KIPTOPEKE VA     0600      84  190/ 10/ 12   N/A
CHES BAY BRIDGE  0600   78 76  170/  9/ 11 1017.6F
CAPE HENRY VA    0600   76     190/  8/ 11   N/A
CHESAPEAKE LGHT  0600   78     210/ 11/ 12 1018.8F
WILLOUBY STN VA  0600   77     200/ 10/ 11 1018.6F
CAPE HENRY BUOY  0628      78                N/A     3/ 5   2/13
1ST LANDING BUOY 0700      78              1017.6S   1/ 4
CAPE CHARLES BUO 0626      78                N/A     2/ 5   2/ 5
OFFSHORE WE BUOY 0611      78                N/A     3/ 5   3/ 5
64NM E OF VA BCH 0650   78 77  200/ 10/ 12 1018.6R   3/ 8   2/ 8
DUCK PIER NC     0600   79 71  210/ 10/ 12   N/A
44100 DUCK FRF   0624      78                N/A     3/ 8   2/14
44056 DUCK FRF   0611      75                N/A     2/ 9   2/13
OREGON INLET NC  0600   80 82  200/ 16/ 18 1019.0S
HATTERAS NC      0600   79 81  200/  6/  8 1019.0F
DIAMOND SHLS NC  0650   81 82  230/ 16/ 19 1019.3R   3/ 9   2/ 9
CAPE LOOKOUT NC  0700   79     210/  7/  9 1019.2F
$$


USA.gov is the U.S. government's official web portal to all federal, state and local government web resources and services.